sat.trackr.live / text

‹ back to catalog

UNKNOWN

NORAD 82912

UNKNOWN UNKNOWN UNKNOWN

§ Identity

Operator
Country
Launch date
Launch site
Launch vehicle
Mass (kg)
RCS (m²)

External: N2YO · Heavens-Above

§ Orbital elements

Epoch: 2026-09-14T05:49:07.673088Z

Period
108.34 min
Inclination
65.8324°
Eccentricity
0.0757299
Mean motion
13.29184057 rev/d
Perigee alt
579.7 km
Apogee alt
1,719.9 km
Semi-major
7,528.0 km
B*
3.3735e-4
RAAN
258.5933°
Arg perigee
143.0302°
Mean anomaly
222.5487°
Rev number
61,592

§ Raw data

UNKNOWN1 82912U          26257.24244992  .00000708  00000+0  33735-3 0  99982 82912  65.8324 258.5933 0757299 143.0302 222.5487 13.29184057615922

JSON: /api/v1/satellites/82912 · /tle

For live sub-satellite position, see the globe view (requires WebGL).

§ Visibility from observer

Set your observer location to see the next 7 days of passes ≥ 10°. The values pass through the URL so the page stays shareable.

No JS? Fill the form by hand. The geolocation button needs JavaScript.